STARLINK-5189, 54052

Orbit data source: Space-Track

STARLINK-5189, 54052 is a payload satellite owned by SpaceX/Seattle (US) in LEO that was launched on Thu, 20 Oct 2022 UTC via an FALCON 9 launch vehicle from the Air Force Eastern Test Range (AFETR). Payload-class satellites include a variety of spacecraft equipped with specific instruments for various scientific and technological missions. These include communications satellites like Starlink; space stations such as the ISS; scientific satellites like the Hubble; Earth observation satellites from companies like Planet Labs, Umbra, and HawkEye 360; GPS; miniature CubeSats for education and research; and military/defense satellites.

Loading next visibility...
Identifier
54052, 2022-136B
Orbit
LEO
Country
Flag of USUS
Related business
Manufacturer
SpaceX/Seattle
Mission
Operational Commercial Communications
Bus & Motor
STARLINK, Unknown motor
Mass
305 kg wet, ~290 kg dry
Launch date (UTC)
2022-10-20 (3 years ago)
Launch vehicle
FALCON 9
Launch site
Air Force Eastern Test Range (AFETR)
Object type
Payload
Rocket body
Debris
Shape & HBR
Box + 1 Pan, 10.1 m
Radar Cross Section
13.562 m², Large (>1 m²)

Expand to show TLE details & history
Last TLE update: 5 hours ago

TLE from 5 hours ago
0 STARLINK-5189
1 54052U 22136B   25304.62702493  .00000118  00000-0  25505-4 0  9998
2 54052  53.2167 163.3204 0001482  91.0575 269.0586 15.08834414167922
Epoch: 2025-10-31T15:02Z
TLE epoch observation values (Epoch: 2025-10-31T15:02:54.953Z)
Latitude
-0.00012°
Longitude
-102.57741°
Altitude
540.675 km
Speed
7.593 km/s
True Right ascension
10h 53m 16s
True Declination
0° 00' 00"
Sunlit
Object was in daylight at epoch
Visualization orbit readout
Latitude
Unknown
Longitude
Unknown
Altitude
Unknown
Speed
Unknown
Apparent Right ascension
Unknown
Apparent Declination
Unknown
Sunlit
N/A
Visualization observer readout
Local Sidereal Time
15:27:25
Azimuth
Unknown
Elevation
Unknown
Doppler factor
Unknown
Orbital elements
Apogee altitude
541.031 km
Perigee altitude
538.98 km
Semi-major axis
6,918.143 km
Eccentricity
0.00015
Inclination
53.2167°
RAAN
163.3204°
Arg. of periapsis
91.0575°
True anomaly
269.04162°
Mean anomaly
269.0586°
Eccentric anomaly
269.05011°
Mean motion
3.77189 °/min
Orbital period
95.44 mins
BSTAR
0.000025505
Loading maneuver chart data...
Computing Atmospheric mass density...
Loading historical data...
Loading historical data...
Loading historical data...
Loading historical data...
Loading historical data...
Loading historical data...
Loading historical data...

Documentation

Showing up to 5 results
|